Weather in Erken-Khalk

Russia / Karachay-Cherkess Republic     44°22′18″N   41°56′12″E
temp.,
°C
wind,
m/s
gust,
m/s
humid.,
%
clouds,
%
prec.,
mm/h
press.,
hPa
HPBL,
m
14 april, wed
wed1400:00+7wsw2396100 3.8 1019144
03:00+7wsw369090 3.9 1018234
06:00+6w4889100 0.0 1019408
09:00+8nw4578100 0.1 1019794
12:00+11nw4566100 0.1 10171070
15:00+11nnw4468100 0.1 1018936
18:00+9n238098 0.0 1019261
21:00+8sse118290 0.0 101911
15 april, thu
thu1500:00+6ssw11878 0.0 101811
03:00+5ssw228520 0.0 101914
06:00+5s22675 0.0 101925
09:00+12se11455 0.0 1018423
12:00+16nne323771 0.0 10161402
15:00+16nne4337100 0.0 10161521
18:00+14nne355898 0.0 1016121
21:00+11e116840 0.0 101812
16 april, fri
fri1600:00+8sse22745 0.0 101711
03:00+7sse2275100 0.0 101717
06:00+8s2266100 0.0 101818
09:00+13nnw115254 0.0 1017412
12:00+17ne33495 0.0 10161321
15:00+18ene3448100 0.1 10141991
18:00+11nw6890100 0.8 1018599
21:00+9wnw2493100 2.3 1020426
17 april, sat
sat1700:00+9nw119395 0.3 1020191
03:00+8wnw229779 0.3 102075
06:00+8nnw3596100 2.4 1022398
09:00+8n2292100 3.1 1022408
12:00+8nne3388100 0.3 1022505
15:00+8ne2490100 1.1 1023374
18:00+8e3693100 0.4 1023365
21:00+7ese2593100 0.5 1023250
18 april, sun
sun1800:00+6se2295100 0.0 102131
03:00+7e1193100 0.3 102034
06:00+7ese2395100 2.8 1021120
09:00+11ese5876100 3.5 1018552
12:00+16e4362100 0.0 1016861
15:00+16ene426676 0.8 1016877
18:00+13ene3583100 1.2 1017217
21:00+11se23927 2.4 101768